Miscellaneous Local Product
Issued by NWS Hastings, NE

Home | Current Version | Previous Version | Graphics & Text | Print | Product List | Glossary On
Versions: 1 2 3 4 5 6 7 8 9 10 11 12 13 14 15 16 17 18 19 20 21 22 23 24 25 26 27 28 29 30 31 32 33 34 35 36 37 38 39 40 41 42 43 44 45 46 47 48 49 50
000
AXUS43 KGID 021102
MISGRI

GID CWA HOURLY WEATHER ROUNDUP
NATIONAL WEATHER SERVICE HASTINGS NE
500 AM CST FRI DEC 02 2016

NOTE: "FAIR" INDICATES FEW OR NO CLOUDS BELOW 12,000 FEET WITH NO
SIGNIFICANT WEATHER AND/OR OBSTRUCTIONS TO VISIBILITY.

...SOUTH CENTRAL NEBRASKA...

CITY           SKY/WX    TMP DP  RH WIND       PRES   REMARKS
GRAND ISLAND   CLEAR     19  17  92 N3        30.16R
HASTINGS       CLEAR     19  16  88 NE3       30.16R
KEARNEY        CLEAR     19  16  86 NW8       30.16R WCI   9
ORD            CLOUDY    24  20  84 CALM      30.16R
YORK           CLEAR     19  19 100 N6        30.17R WCI  11
AURORA         CLEAR     20  19  97 N3        30.17R
LEXINGTON      CLEAR     18  15  87 NW5       30.15R WCI  11
HOLDREGE       CLEAR     17  14  88 NW5       30.13R WCI  10
HEBRON         CLEAR     17  15  92 CALM      30.17R

...NEBRASKA PANHANDLE...

CITY           SKY/WX    TMP DP  RH WIND       PRES   REMARKS
CHADRON        PTCLDY    26  20  77 SW7       30.13R WCI  18
ALLIANCE       CLEAR     10   7  87 SW8       30.11R WCI  -2
SCOTTSBLUFF    CLOUDY    18  13  80 N3        30.13R
SIDNEY         CLEAR     14  11  87 NW10      30.11R WCI   1

...WESTERN AND NORTH CENTRAL NEBRASKA...

CITY           SKY/WX    TMP DP  RH WIND       PRES   REMARKS
VALENTINE      CLOUDY    22  19  89 W5        30.15R WCI  16
AINSWORTH      CLOUDY    20  20  99 W3        30.15R
ONEILL         CLOUDY    25  23  95 NW6       30.16R WCI  18
BROKEN BOW     CLOUDY    27  24  89 CALM      30.13S
IMPERIAL       CLEAR     16  10  77 W5        30.13R WCI   9
NORTH PLATTE   CLEAR     14  10  84 NW7       30.14R WCI   4
MCCOOK         CLEAR     16  11  80 W7        30.14R WCI   6

...EASTERN NEBRASKA...

CITY           SKY/WX    TMP DP  RH WIND       PRES   REMARKS
NORFOLK        CLEAR     23  21  92 W6        30.17R WCI  16
SO SIOUX CITY  CLOUDY    34  31  88 NW7       30.18R WCI  28
TEKAMAH        CLOUDY    32  28  85 W8        30.18R WCI  25
COLUMBUS       CLEAR     25  19  80 W5        30.18R WCI  19
ALBION         PTCLDY    21  19  92 CALM      30.17R
OMAHA EPPLEY   CLOUDY    32  26  78 NW3       30.19R
OFFUTT AFB     CLOUDY    29  29  99 W3        30.18R
MILLARD        CLOUDY    32  28  86 CALM      30.18R
LINCOLN        CLEAR     22  19  89 N3        30.20R
NEBRASKA CITY  CLEAR     28  23  81 NW5       30.18R WCI  23
BEATRICE       CLEAR     18  16  90 CALM      30.18R
FALLS CITY     CLEAR     21  19  92 W3        30.18R

...NORTHERN KANSAS...

CITY           SKY/WX    TMP DP  RH WIND       PRES   REMARKS
GOODLAND       CLEAR     17   9  70 W9        30.12R WCI   6
HILL CITY      CLEAR     19  12  74 W7        30.15R WCI  10
NORTON         SUNNY     16   9  73 W5        30.14R WCI   9
PHILLIPSBURG   CLEAR     21  16  79 W8        30.15S WCI  12
SMITH CENTER   CLEAR     12  10  92 N5        30.15R WCI   4
BELOIT         CLEAR     16  12  86 CALM      30.16R
HAYS           CLEAR     18  13  80 CALM      30.15R
RUSSELL        CLEAR     19  14  81 SW5       30.14R WCI  12
CONCORDIA      CLEAR     19  16  88 SE3       30.16R
SALINA         CLEAR     22  17  81 NW5       30.17R WCI  16
TOPEKA         CLEAR     22  18  85 CALM      30.18R



USA.gov is the U.S. government's official web portal to all federal, state and local government web resources and services.